De Soto, IL

1:51 AM CST on February 25, 2017 (GMT -0600)
Southern Illinois

Weather History for KMDH - March, 2014

Change the Weather History Date:

Sunday, March 30, 2014

  Actual Average Record
Temperature  
Mean Temperature 44 °F -  
Max Temperature 62 °F 61 °F 81 °F (1967)
Min Temperature 28 °F 41 °F 18 °F (1964)
Degree Days  
Heating Degree Days 20    
Moisture  
Dew Point 30 °F    
Average Humidity 74    
Maximum Humidity 92    
Minimum Humidity 31    
Precipitation  
Precipitation 0.00 in - - ()
Sea Level Pressure  
Sea Level Pressure 30.24 in    
Wind  
Wind Speed 2 mph (SW)    
Max Wind Speed 9 mph    
Max Gust Speed -    
Visibility 5 miles    
Events Fog    
Averages and records for this station are not official NWS values.
T = Trace of Precipitation, MM = Missing Value Source: NWS Daily Summary

Daily Weather History Graph

Daily Weather History Graph

Search for Another Location

Airport or City:

Trip Planner

Search our weather history database for the weather conditions in past years. The results will help you decide how hot, cold, wet, or windy it might be!

Date:

Astronomy

Mar. 30, 2014 Rise Set
Actual Time 6:45 AM CDT 7:18 PM CDT
Civil Twilight 6:18 AM CDT 7:44 PM CDT
Nautical Twilight 5:47 AM CDT 8:15 PM CDT
Astronomical Twilight 5:16 AM CDT 8:47 PM CDT
Moon 6:31 AM CDT (3/30) 7:30 PM CDT (3/30)
Length of Visible Light 13h 25m
Length of Day
12h 32m
Waning Crescent, 0% of the Moon is Illuminated
Mar 30
Waning Crescent
Mar 30
New
Apr 7
First Quarter
Apr 15
Full
Apr 22
Last Quarter

Hourly Weather History & Observations

Time (CDT) Temp. Windchill Dew Point Humidity Pressure Visibility Wind Dir Wind Speed Gust Speed Precip Events Conditions
12:52 AM 35.1 °F 32.2 °F 30.9 °F 85% 30.27 in 4.0 mi NW 3.5 mph - N/A   Clear
1:15 AM 33.1 °F 27.7 °F 28.9 °F 85% 30.28 in 2.5 mi WNW 5.8 mph - N/A   Clear
1:41 AM 33.1 °F 28.7 °F 30.0 °F 89% 30.28 in 3.0 mi WNW 4.6 mph - N/A   Clear
1:52 AM 33.1 °F - 30.0 °F 89% 30.29 in 3.0 mi Calm Calm - N/A   Clear
2:41 AM 33.1 °F 30.0 °F 28.9 °F 85% 30.29 in 2.0 mi NW 3.5 mph - N/A   Clear
2:48 AM 33.8 °F - 28.4 °F 81% 30.29 in 1.2 mi Calm Calm - N/A   Clear
2:52 AM 32.0 °F 28.7 °F 28.9 °F 88% 30.30 in 0.8 mi NW 3.5 mph - N/A   Clear
3:05 AM 33.1 °F - 30.0 °F 89% 30.29 in 2.0 mi Calm Calm - N/A   Clear
3:24 AM 30.9 °F - 28.0 °F 89% 30.28 in 3.0 mi Calm Calm - N/A   Clear
3:41 AM 32.0 °F - 28.0 °F 85% 30.27 in 2.0 mi Calm Calm - N/A   Clear
3:52 AM 30.9 °F - 27.0 °F 85% 30.27 in 2.0 mi Calm Calm - N/A   Clear
4:45 AM 30.9 °F 27.5 °F 27.0 °F 85% 30.25 in 3.0 mi SSW 3.5 mph - N/A   Clear
4:52 AM 30.9 °F 27.5 °F 27.0 °F 85% 30.27 in 2.5 mi SW 3.5 mph - N/A   Clear
5:02 AM 30.0 °F 25.2 °F 27.0 °F 88% 30.25 in 1.2 mi WSW 4.6 mph - N/A   Clear
5:11 AM 30.0 °F - 28.0 °F 92% 30.26 in 0.5 mi Calm Calm - N/A Fog Light Freezing Fog
5:22 AM 30.9 °F - 27.0 °F 85% 30.26 in 1.5 mi Calm Calm - N/A   Clear
5:43 AM 28.9 °F - 26.1 °F 89% 30.27 in 0.5 mi Calm Calm - N/A Fog Light Freezing Fog
5:52 AM 30.0 °F - 26.1 °F 85% 30.27 in 1.2 mi Calm Calm - N/A   Scattered Clouds
6:00 AM 30.9 °F - 27.0 °F 85% 30.26 in 0.8 mi Calm Calm - N/A   Mist
6:12 AM 30.0 °F - 26.1 °F 85% 30.26 in 1.2 mi Calm Calm - N/A   Scattered Clouds
6:15 AM 30.0 °F - 26.1 °F 85% 30.26 in 0.8 mi Calm Calm - N/A   Mist
6:25 AM 30.0 °F - 26.1 °F 85% 30.27 in 1.2 mi Calm Calm - N/A   Scattered Clouds
6:33 AM 30.0 °F - 27.0 °F 88% 30.27 in 2.5 mi Calm Calm - N/A   Partly Cloudy
6:47 AM 30.2 °F - 26.6 °F 86% 30.26 in 1.2 mi Calm Calm - N/A   Partly Cloudy
6:52 AM 28.9 °F - 25.0 °F 85% 30.28 in 1.2 mi Calm Calm - N/A   Clear
7:52 AM 32.0 °F - 28.9 °F 88% 30.30 in 1.8 mi Calm Calm - N/A   Clear
8:25 AM 36.0 °F - 33.1 °F 89% 30.29 in 2.0 mi Calm Calm - N/A   Clear
8:52 AM 39.0 °F - 34.0 °F 82% 30.30 in 3.0 mi Calm Calm - N/A   Haze
9:52 AM 43.0 °F 41.3 °F 35.1 °F 74% 30.32 in 6.0 mi SE 3.5 mph - N/A   Haze
10:52 AM 46.9 °F - 32.0 °F 56% 30.31 in 10.0 mi Variable 3.5 mph - N/A   Clear
11:52 AM 50.0 °F - 30.9 °F 48% 30.30 in 10.0 mi Variable 4.6 mph - N/A   Clear
12:52 PM 53.1 °F - 32.0 °F 45% 30.25 in 10.0 mi SW 4.6 mph - N/A   Clear
1:52 PM 57.0 °F - 32.0 °F 39% 30.22 in 10.0 mi Calm Calm - N/A   Clear
2:52 PM 59.0 °F - 33.1 °F 38% 30.18 in 10.0 mi Variable 4.6 mph - N/A   Clear
3:52 PM 61.0 °F - 33.1 °F 35% 30.16 in 10.0 mi South 4.6 mph - N/A   Clear
4:52 PM 61.0 °F - 30.0 °F 31% 30.14 in 10.0 mi North - - N/A   Clear
5:52 PM 61.0 °F - 36.0 °F 39% 30.13 in 10.0 mi South 8.1 mph - N/A   Clear
6:52 PM 54.0 °F - 37.0 °F 53% 30.13 in 10.0 mi SSW 9.2 mph - N/A   Clear
7:52 PM 51.1 °F - 36.0 °F 56% 30.13 in 10.0 mi South 6.9 mph - N/A   Clear
8:52 PM 50.0 °F - 35.1 °F 57% 30.12 in 10.0 mi SSE 6.9 mph - N/A   Clear
9:52 PM 48.0 °F - 35.1 °F 61% 30.13 in 10.0 mi South 4.6 mph - N/A   Clear
10:52 PM 46.0 °F 43.9 °F 35.1 °F 66% 30.12 in 10.0 mi SSE 4.6 mph - N/A   Clear
11:52 PM 45.0 °F - 35.1 °F 68% 30.12 in 10.0 mi Calm Calm - N/A   Clear